Location: D�nning
(49.2479°N, 12.8491°E)
Time: 08:35:30
(UTC+00:00)

Sich 1 Rocket - Pass Details

Date: 18 September 2020
Orbit: 616 x 652 km, 82.5° (Epoch: 24 October)

Event Time Altitude Azimuth Distance (km) Brightness Sun altitude
Rises 17:43:23 0° 162° (SSE) 2,917 6.7 -5.5°
Reaches altitude 10° 17:45:47 10° 152° (SSE) 2,020 5.8 -5.9°
Maximum altitude 17:49:45 32° 90° (E) 1,112 4.4 -6.5°
Drops below altitude 10° 17:53:46 10° 28° (NNE) 2,054 6.1 -7.2°
Sets 17:56:13 0° 18° (NNE) 2,975 7.0 -7.6°
